Red Bluff, CA

12:15 PM PST on December 05, 2019 (GMT -0800)
Red Bluff Municipal

Weather History for KRBL - October, 2019

Change the Weather History Date:

Saturday, October 19, 2019

  Actual Average Record
Temperature  
Mean Temperature 62 °F -  
Max Temperature 71 °F 78 °F 94 °F (1988)
Min Temperature 52 °F 49 °F 36 °F (1943)
Degree Days  
Heating Degree Days 4    
Growing Degree Days 12 (Base 50)    
Moisture  
Dew Point 45 °F    
Average Humidity 60    
Maximum Humidity 80    
Minimum Humidity 31    
Precipitation  
Precipitation 0.00 in - - ()
Sea Level Pressure  
Sea Level Pressure 30.03 in    
Wind  
Wind Speed 4 mph (SSW)    
Max Wind Speed 14 mph    
Max Gust Speed -    
Visibility 10 miles    
Events Rain    
Averages and records for this station are not official NWS values.
T = Trace of Precipitation, MM = Missing Value Source: NWS Daily Summary

Daily Weather History Graph

Daily Weather History Graph

Search for Another Location

Airport or City:

Astronomy

Oct. 19, 2019 Rise Set
Actual Time 7:23 AM PDT 6:23 PM PDT
Civil Twilight 6:56 AM PDT 6:51 PM PDT
Nautical Twilight 6:24 AM PDT 7:22 PM PDT
Astronomical Twilight 5:53 AM PDT 7:53 PM PDT
Moon 10:37 PM PDT (10/19) 1:01 PM PDT (10/19)
Length of Visible Light 11h 54m
Length of Day
10h 59m
Waning Gibbous, 68% of the Moon is Illuminated
Oct 19
Waning Gibbous
Oct 21
Last Quarter
Oct 27
New
Nov 4
First Quarter
Nov 12
Full

Hourly Weather History & Observations

Time (PDT) Temp. Dew Point Humidity Pressure Visibility Wind Dir Wind Speed Gust Speed Precip Events Conditions
12:54 AM 57.0 °F 42.1 °F 57% 30.02 in 10.0 mi Calm Calm - N/A   Overcast
1:54 AM 59.0 °F 43.0 °F 55% 30.01 in 10.0 mi Calm Calm - N/A   Overcast
2:54 AM 57.0 °F 44.1 °F 62% 30.01 in 10.0 mi SSW 8.1 mph - N/A   Overcast
3:54 AM 55.9 °F 45.0 °F 67% 30.00 in 10.0 mi South 9.2 mph - N/A   Overcast
4:54 AM 53.1 °F 45.0 °F 74% 29.98 in 10.0 mi South 5.8 mph - N/A   Clear
5:54 AM 54.0 °F 46.9 °F 77% 29.97 in 10.0 mi SSE 12.7 mph - N/A   Mostly Cloudy
6:54 AM 55.0 °F 46.9 °F 74% 29.97 in 10.0 mi South 13.8 mph - N/A   Overcast
7:54 AM 55.0 °F 46.9 °F 74% 30.00 in 10.0 mi SSE 5.8 mph - N/A   Overcast
9:54 AM 55.0 °F 48.9 °F 80% 30.07 in 9.0 mi Calm Calm - 0.00 in Rain Light Rain
10:54 AM 57.0 °F 48.0 °F 72% 30.07 in 10.0 mi Calm Calm - 0.00 in   Overcast
11:54 AM 60.1 °F 46.0 °F 60% 30.06 in 10.0 mi Calm Calm - N/A   Clear
12:54 PM 64.0 °F 45.0 °F 50% 30.05 in 10.0 mi South 3.5 mph - N/A   Clear
1:54 PM 66.9 °F 45.0 °F 45% 30.04 in 10.0 mi ENE 4.6 mph - N/A   Clear
2:54 PM 69.1 °F 46.0 °F 44% 30.03 in 10.0 mi Variable 5.8 mph - N/A   Clear
3:54 PM 69.1 °F 46.0 °F 44% 30.04 in 10.0 mi North 5.8 mph - N/A   Clear
4:54 PM 70.0 °F 46.0 °F 42% 30.03 in 10.0 mi Calm Calm - N/A   Clear
5:54 PM 66.9 °F 45.0 °F 45% 30.02 in 10.0 mi Calm Calm - N/A   Clear
6:54 PM 62.1 °F 46.0 °F 56% 30.02 in 10.0 mi Calm Calm - N/A   Clear
7:54 PM 57.9 °F 45.0 °F 62% 30.05 in 10.0 mi West 6.9 mph - N/A   Clear
8:54 PM 57.9 °F 45.0 °F 62% 30.06 in 10.0 mi West 8.1 mph - N/A   Clear
9:54 PM 55.0 °F 43.0 °F 64% 30.07 in 10.0 mi North 5.8 mph - N/A   Clear
10:54 PM 57.0 °F 44.1 °F 62% 30.09 in 10.0 mi NW 4.6 mph - N/A   Clear
11:54 PM 52.0 °F 45.0 °F 77% 30.09 in 10.0 mi NNE 4.6 mph - N/A   Clear